RH
5 5 5 5 5 5 5 5 5 5 5 5 5 5 5 4 4 4 3 4 4 4 3 3 3 2 3 2 2 2 2 2 1 2 2 2 3 2 4 6 12 26 37 42 45 52 57 62 74 75 75 84
6 6 5 6 5 6 6 5 6 6 6 6 6 5 6 5 5 5 4 4 4 4 4 3 3 3 3 3 3 2 2 2 2 3 1 2 2 1 3 4 12 37 60 58 45 39 45 66 85 84 80 87
6 6 6 6 6 6 6 6 6 6 7 7 7 7 6 6 6 5 5 5 5 5 4 4 4 4 4 3 3 2 3 2 2 3 3 4 2 3 2 2 15 46 74 71 54 34 34 69 94 95 90 88
6 6 6 6 6 6 6 6 7 7 7 8 8 8 8 8 8 7 6 6 6 6 5 5 4 4 4 4 4 3 3 2 3 3 4 5 4 4 1 16 34 49 76 80 66 45 38 67 90 97 97 95
7 7 7 7 7 6 6 7 6 7 7 8 8 9 9 9 9 9 8 7 7 7 7 6 5 5 4 4 4 3 4 3 3 3 6 9 9 8 -1 31 71 74 85 97 89 68 54 66 83 95 97 98
10 9 9 8 8 8 7 7 6 7 6 7 8 9 9 9 10 10 10 9 9 8 8 7 7 7 6 5 4 4 4 3 5 6 16 24 21 17 0 18 75 96 89 92 101 87 77 82 83 91 92 93
13 13 12 12 11 11 10 9 8 7 7 6 7 7 8 9 10 10 10 11 11 10 10 9 8 8 7 7 6 5 5 4 6 7 17 32 35 29 11 0 41 94 96 77 89 94 91 96 92 92 90 90
15 15 15 15 15 14 13 12 12 10 10 8 7 7 7 7 8 9 10 11 11 12 11 11 10 10 10 8 8 6 6 5 5 5 6 19 35 39 32 10 8 59 97 82 82 99 100 98 98 97 94 93
17 17 17 17 17 17 16 15 14 14 13 12 11 9 7 6 7 7 8 9 10 12 12 12 12 12 12 11 11 9 8 7 5 6 4 5 17 30 44 39 7 18 75 98 93 97 98 98 98 100 98 97
22 22 22 22 21 20 19 18 17 17 16 15 14 12 11 8 7 7 6 7 8 10 11 12 13 12 13 12 13 12 10 9 8 7 7 5 8 24 50 62 35 7 33 79 96 97 98 98 99 100 100 99
25 25 25 26 27 27 26 25 23 21 19 18 17 16 15 13 10 8 7 7 7 8 9 10 12 12 13 14 14 14 12 11 11 10 8 7 8 21 47 66 62 33 19 37 65 85 95 96 96 98 99 100
26 25 26 27 28 30 31 32 32 32 30 27 24 21 19 17 15 12 10 9 7 7 8 9 10 12 12 13 14 14 15 13 12 12 10 9 9 17 35 53 65 61 44 34 43 62 76 85 91 96 100 101
25 25 26 26 27 29 30 32 34 36 37 37 36 34 30 26 22 18 15 12 11 9 8 9 9 10 12 12 14 14 14 16 14 14 13 11 11 16 26 43 66 79 72 51 45 58 69 77 84 91 95 95
18 18 18 19 20 21 22 24 26 28 31 34 37 39 40 39 36 31 25 19 15 12 11 11 10 10 12 12 13 14 13 15 16 15 15 14 11 11 14 29 58 85 92 74 60 66 74 74 73 78 83 82
11 11 11 11 12 12 13 13 15 16 18 21 24 28 32 36 40 41 40 36 28 22 16 13 12 12 12 13 13 14 14 14 15 15 16 16 15 13 10 12 27 51 73 79 77 82 89 89 85 85 86 85
8 8 8 8 9 9 9 9 9 9 10 11 12 14 17 20 25 31 36 40 41 39 33 24 18 14 13 14 15 15 15 14 14 15 15 16 16 16 15 11 10 17 27 39 53 65 78 89 95 99 100 98
6 6 6 7 7 7 7 7 8 8 8 8 8 8 9 10 11 15 18 24 31 37 41 41 35 28 21 16 15 16 16 17 16 15 15 15 16 16 17 16 13 12 11 11 17 25 35 48 61 76 88 96
5 5 5 5 5 6 6 6 6 6 7 7 8 8 7 8 7 8 9 10 13 18 25 33 38 40 37 31 24 19 17 17 18 18 17 15 16 16 16 17 16 15 14 12 11 10 12 15 21 31 43 56
6 6 6 6 5 6 5 5 6 5 6 6 6 7 7 8 8 7 7 7 7 8 10 14 20 27 35 39 38 33 26 20 18 19 20 19 17 17 16 17 18 17 17 16 15 14 12 11 11 11 13 17
7 7 7 7 7 7 7 6 6 6 6 6 6 6 6 6 7 7 7 7 7 7 7 7 8 11 16 23 31 37 39 34 28 21 20 21 20 20 18 17 17 17 17 18 18 17 16 15 14 12 11 10
8 8 8 8 8 8 8 7 7 8 7 7 7 6 7 6 6 6 6 7 7 7 7 7 7 7 7 9 13 20 29 36 38 34 28 23 21 21 21 20 18 17 17 18 18 18 18 18 17 15 14 12
9 9 8 8 8 7 7 7 7 7 6 6 6 6 6 6 6 6 6 6 6 6 7 7 7 7 7 7 7 8 11 18 26 34 37 34 28 23 22 23 22 21 18 18 18 18 19 19 19 19 17 16
8 7 7 6 6 6 5 5 5 5 5 5 5 5 5 5 5 5 5 6 6 6 6 6 7 7 7 6 7 7 6 8 11 16 24 32 36 33 27 23 23 24 23 21 19 18 20 19 20 20 20 19
6 5 5 5 5 5 5 5 5 5 5 5 5 4 4 4 4 4 4 4 4 5 6 6 6 6 7 7 6 7 6 7 7 7 9 14 23 32 35 32 27 25 25 26 23 20 20 19 20 21 21 22
5 5 6 6 6 6 6 6 6 6 6 6 6 5 5 5 4 4 4 4 3 4 4 4 6 6 6 6 6 7 6 6 7 7 8 7 9 15 24 34 36 33 30 29 28 26 23 21 21 21 21 22
6 6 6 6 7 7 7 7 7 7 7 7 7 6 6 6 5 5 4 4 3 3 4 3 4 4 5 6 6 6 6 7 7 6 7 7 8 7 9 17 28 36 38 35 33 31 28 25 24 23 23 22
6 7 7 7 7 8 7 8 8 9 9 8 8 8 7 6 5 5 4 4 4 3 4 3 3 3 4 4 5 6 6 6 7 7 7 7 7 8 7 7 11 20 31 37 40 38 35 31 27 25 24 24
7 7 7 8 8 9 9 9 10 10 10 10 10 9 8 8 6 6 5 4 4 4 4 3 4 4 3 4 4 4 5 6 6 6 6 7 6 7 7 8 7 8 13 23 33 41 44 40 38 36 28 26
8 8 8 9 9 10 10 11 11 11 11 11 11 11 9 8 7 6 5 4 4 4 5 4 4 4 4 5 4 4 4 4 5 6 6 6 6 7 7 7 8 8 7 10 16 28 41 47 52 51 36 28
9 9 10 10 10 11 11 12 12 12 13 13 12 12 11 9 8 7 6 5 5 5 5 5 6 6 6 6 6 6 5 5 4 5 5 6 6 6 7 7 7 8 8 8 8 12 25 38 51 56 43 33
10 11 12 12 12 12 13 13 14 14 14 14 14 13 12 10 9 8 7 6 6 6 6 7 7 9 10 9 9 8 7 6 5 5 5 5 6 5 6 6 6 7 7 8 9 7 11 21 34 48 48 43
Wind_Speed
44 45 45 46 47 47 47 47 47 47 46 46 46 47 48 49 49 50 50 50 50 51 50 50 50 49 48 48 48 47 46 45 45 44 44 45 45 46 47 47 49 50 51 52 54 53 51 50 48 47 45 44
45 45 46 46 47 48 49 49 49 49 48 47 47 47 48 49 50 50 50 51 51 52 51 51 50 50 49 48 48 48 47 46 45 44 43 43 43 45 46 46 46 48 52 54 55 54 53 50 48 47 45 45
45 45 46 47 47 48 49 50 50 50 50 49 49 48 49 49 50 51 51 51 52 52 52 52 51 50 50 49 49 49 48 47 46 45 44 43 42 44 45 45 44 47 54 57 55 53 54 52 49 48 47 46
46 46 47 47 48 49 50 50 51 52 52 51 51 50 49 49 50 51 52 52 52 52 53 53 53 52 52 51 50 49 49 48 47 46 46 45 43 43 44 44 43 46 54 60 59 55 53 51 50 51 49 47
47 48 48 49 49 50 51 51 52 53 53 53 53 52 51 51 51 52 52 53 53 53 53 53 54 54 54 53 52 50 49 48 47 46 46 46 45 44 44 43 42 47 53 58 60 57 53 51 50 51 49 48
48 49 49 50 51 51 52 52 53 53 54 54 55 55 54 53 53 53 53 54 54 54 53 53 54 55 55 55 55 53 50 47 47 47 47 47 47 45 45 45 43 48 53 54 57 58 55 52 51 52 51 51
50 50 51 51 52 52 52 53 53 54 55 55 56 56 56 56 55 55 54 54 55 56 55 55 54 55 55 56 56 56 54 50 48 48 48 48 47 46 46 48 46 48 53 55 56 57 57 53 52 55 56 55
52 53 53 53 53 54 54 54 54 55 55 56 57 57 58 58 58 57 56 56 56 57 57 57 56 56 56 56 56 57 57 55 52 50 50 49 49 48 48 50 51 51 53 58 57 52 53 54 54 58 61 61
55 55 56 56 56 56 56 56 56 57 57 57 58 59 59 59 59 59 59 58 57 57 57 58 58 57 57 57 57 57 57 57 56 54 52 51 50 51 51 52 54 55 55 58 59 49 47 52 53 56 60 61
58 58 58 58 58 59 59 59 59 59 60 60 60 60 61 61 61 61 61 60 59 58 58 58 58 59 59 58 58 58 59 58 57 55 54 53 52 51 52 53 55 58 58 60 62 55 49 50 49 50 53 53
61 61 61 61 62 61 61 61 62 62 62 62 63 63 63 63 63 63 63 62 62 61 60 59 59 59 60 60 60 59 60 59 58 56 55 55 54 53 53 54 55 58 62 64 67 65 59 57 55 51 51 51
64 64 64 65 65 65 65 64 64 64 64 65 65 65 65 65 66 65 65 64 64 64 63 62 60 60 60 61 61 61 60 60 60 59 57 56 56 56 55 55 56 58 62 65 68 69 66 64 64 61 57 56
65 65 66 66 66 67 67 67 67 67 67 67 67 67 67 67 68 68 67 67 66 66 65 64 63 62 62 62 62 62 62 61 61 61 61 59 57 57 58 58 58 59 62 64 66 67 67 66 65 66 64 62
65 65 66 66 67 67 68 68 69 69 69 68 68 68 69 69 70 70 70 70 69 68 67 67 66 65 64 64 63 63 64 63 63 62 63 62 60 60 60 61 61 61 62 63 63 61 61 62 63 64 64 64
66 67 67 68 68 69 69 69 69 70 70 70 70 70 70 70 70 71 71 72 72 72 71 70 69 68 67 66 65 65 65 65 65 64 64 64 63 63 63 63 64 66 65 65 64 61 57 56 58 59 58 59
68 69 69 70 70 70 70 70 71 71 71 71 72 72 71 71 71 71 72 72 73 74 74 73 72 71 70 69 68 67 67 67 67 67 67 67 66 65 65 66 66 67 68 69 68 66 63 59 58 56 53 52
70 70 70 71 72 72 72 72 72 72 72 72 73 73 73 73 73 73 73 73 73 74 75 76 76 75 74 73 71 70 69 69 69 69 69 69 68 68 68 68 68 68 69 70 71 70 69 67 66 63 59 56
70 70 71 71 72 73 73 74 74 74 74 74 74 74 74 75 75 75 74 74 74 75 75 75 77 77 78 77 75 74 73 72 71 71 71 70 70 70 70 70 70 70 70 71 71 71 70 69 70 70 68 67
69 69 70 70 70 70 71 72 73 74 74 75 75 75 76 76 76 76 76 76 76 76 76 76 76 77 78 79 79 78 76 75 74 74 73 73 72 72 72 71 71 73 73 72 71 71 70 69 69 70 69 69
67 67 66 67 67 67 67 68 69 70 71 72 73 74 76 76 77 77 78 78 77 77 77 77 78 78 78 79 80 80 80 79 77 77 76 76 75 74 74 73 73 74 74 73 73 73 71 70 69 68 68 68
63 62 62 62 62 63 63 63 64 64 66 67 69 70 72 74 75 77 78 79 79 79 79 79 79 79 79 80 80 81 82 81 80 79 78 78 78 77 77 76 75 75 75 74 74 75 74 72 70 68 67 67
57 57 57 57 57 58 58 59 60 60 61 62 63 65 68 70 71 74 75 77 79 80 81 81 81 80 80 81 81 81 82 82 83 82 81 80 80 80 79 79 78 77 75 75 75 75 75 74 72 70 67 67
53 52 52 52 53 53 53 54 55 55 56 56 57 59 62 65 67 70 72 75 77 79 80 81 82 82 82 82 82 83 83 83 83 84 84 82 81 82 82 81 80 80 78 76 75 75 75 75 74 72 69 67
49 49 49 50 50 50 51 51 52 53 54 54 55 55 57 59 62 65 68 71 74 77 79 81 82 83 84 84 84 84 84 84 84 84 85 85 84 82 83 83 83 82 81 78 77 76 76 76 75 74 73 69
48 49 50 50 51 52 53 54 55 55 56 56 56 56 57 59 60 62 64 67 70 74 77 80 82 83 84 85 86 86 86 86 86 85 85 85 86 85 83 83 84 84 83 81 79 77 77 77 75 75 75 72
49 51 52 54 55 56 57 58 58 59 60 60 60 60 60 61 62 63 64 66 67 70 74 78 81 83 85 86 87 87 87 87 88 87 86 85 86 87 86 84 84 84 84 84 81 79 78 77 76 75 75 75
52 54 56 57 58 60 60 61 61 61 62 63 63 63 63 64 65 65 66 67 68 69 70 74 78 81 84 86 87 88 89 89 89 89 89 88 86 86 87 87 85 84 84 84 83 81 79 78 78 77 77 76
55 57 59 60 61 62 62 62 63 63 64 65 65 66 66 67 67 68 69 69 70 70 70 71 74 78 81 84 87 89 90 90 90 90 90 90 89 87 86 87 87 86 85 85 84 82 80 78 78 79 79 77
58 60 61 62 62 63 64 64 65 65 66 66 67 68 68 69 70 71 72 72 72 71 71 71 72 74 77 80 83 86 89 90 91 91 91 91 91 90 88 86 87 87 87 86 85 83 81 80 78 80 80 78
60 62 63 64 64 65 65 65 66 67 67 68 69 69 70 71 72 73 74 74 73 72 71 70 71 73 74 76 78 81 84 87 90 92 92 92 91 92 91 89 87 87 88 87 86 85 83 82 82 82 82 80
62 64 64 65 65 66 67 67 67 68 69 69 70 71 71 72 74 75 76 76 75 73 70 69 70 71 72 74 75 76 78 82 86 89 92 93 92 91 92 91 89 87 87 87 87 87 85 83 83 84 84 82
Wind_Direction
282 282 282 281 281 281 280 280 280 279 279 278 277 276 275 273 272 271 271 270 270 268 267 266 265 264 263 262 261 260 259 257 257 256 257 258 259 259 258 256 255 256 255 254 253 251 252 253 252 252 250 249
285 284 284 283 283 282 282 281 281 280 279 279 278 276 275 274 273 271 271 270 270 269 268 266 265 265 264 263 262 260 259 258 256 255 256 256 258 258 257 255 253 255 255 252 249 248 249 249 249 249 245 243
287 286 285 284 283 283 282 282 281 281 280 279 278 277 276 275 274 272 271 271 271 270 269 268 266 265 265 264 263 261 260 258 257 256 255 255 255 256 256 254 250 252 256 253 250 249 246 245 248 247 242 240
287 286 286 285 284 284 283 282 282 281 280 279 278 277 275 275 275 274 272 272 271 271 270 269 268 266 266 264 263 262 261 259 257 257 257 256 253 252 252 252 249 250 253 252 249 250 246 243 249 245 238 240
287 286 285 285 284 283 283 282 281 281 280 280 279 278 276 275 274 274 273 272 272 271 271 270 269 268 267 265 263 262 261 261 259 257 257 257 254 251 249 247 249 249 249 251 249 248 247 244 246 241 235 237
285 284 284 283 282 282 281 280 280 280 280 279 279 278 277 276 274 274 274 273 273 272 271 270 269 269 269 268 266 263 261 261 260 257 254 255 255 252 249 244 245 248 245 247 249 246 246 245 244 240 235 234
282 282 281 281 280 280 279 279 279 278 279 278 278 278 278 277 275 274 273 273 273 272 272 270 269 269 269 268 268 266 262 260 259 256 253 252 253 252 250 245 241 247 245 241 245 245 243 244 243 240 236 233
281 281 280 279 279 278 278 278 277 277 277 277 277 277 276 276 275 274 272 271 271 271 271 271 270 269 269 268 267 267 265 263 260 258 254 251 251 251 251 248 241 243 244 238 239 239 234 236 237 237 235 232
282 282 281 280 280 279 278 278 277 277 276 275 275 275 275 274 274 273 272 271 269 269 269 270 269 269 268 268 267 266 266 265 264 261 258 253 251 251 250 250 246 242 241 236 233 233 229 228 227 226 227 229
283 283 282 282 281 281 280 279 278 277 276 275 274 274 273 273 272 272 271 271 269 268 267 267 267 268 267 267 267 266 265 264 265 264 262 257 252 250 250 251 250 246 242 236 233 236 237 234 231 225 221 223
283 283 282 282 281 280 280 279 278 277 277 276 274 274 273 272 272 271 271 270 269 268 267 265 265 265 266 266 265 265 265 264 263 263 262 261 256 251 251 251 251 250 247 242 240 241 242 242 245 242 234 231
284 283 283 282 281 281 280 279 278 277 277 276 275 274 273 272 271 271 271 270 269 268 267 266 264 263 263 263 264 263 263 263 263 262 260 260 258 255 253 252 252 252 251 249 247 247 247 246 249 251 249 245
284 284 283 282 282 281 280 279 278 277 276 276 275 274 273 272 272 271 270 270 269 268 267 266 265 263 263 262 262 262 261 261 261 261 260 258 257 256 254 253 253 253 253 251 251 251 251 250 250 252 254 254
284 283 282 282 281 280 279 279 278 277 276 276 275 274 273 273 272 271 270 269 268 268 267 267 266 264 263 262 261 260 260 259 259 258 258 258 256 255 253 253 253 254 254 253 252 253 254 254 254 254 257 258
284 283 282 281 280 279 279 278 277 277 276 275 274 273 273 272 271 271 270 270 269 268 267 266 266 265 263 262 261 260 259 258 258 257 257 256 256 255 254 252 251 252 253 254 253 252 251 253 253 253 255 256
284 283 282 282 280 279 278 278 277 276 275 275 274 273 272 271 270 270 269 269 268 268 267 266 265 264 263 262 261 259 259 258 257 256 256 255 254 254 254 253 252 252 252 253 254 253 251 250 249 248 247 247
285 284 283 283 282 281 280 279 277 276 275 274 273 273 272 271 270 269 268 267 267 267 267 267 265 264 263 262 261 260 258 258 257 256 256 255 254 253 253 252 252 252 252 253 254 255 254 252 251 250 248 247
286 285 284 283 283 282 281 280 279 277 276 275 274 273 272 271 270 269 268 267 266 265 265 265 265 265 264 262 261 260 259 257 257 256 256 255 255 254 253 252 252 252 252 253 254 255 255 254 253 252 252 252
287 286 285 284 283 282 281 280 280 278 277 276 275 274 273 272 271 269 268 267 266 265 264 263 263 263 264 263 262 261 259 258 256 256 255 255 254 254 254 252 252 251 251 252 253 254 255 255 254 253 253 254
289 288 287 286 285 284 283 282 281 280 279 278 277 276 275 274 272 271 270 269 267 266 264 263 262 261 261 262 262 262 260 259 257 255 255 255 254 254 254 253 252 252 251 251 252 253 253 254 254 253 253 253
290 290 289 288 288 287 286 285 284 284 283 282 280 279 277 276 275 273 272 270 269 267 266 264 262 261 260 260 260 261 261 260 258 256 255 254 254 253 253 253 253 252 252 251 252 252 253 253 253 253 253 253
292 292 291 290 290 290 290 289 288 288 287 286 285 284 282 280 278 277 275 273 271 269 268 266 264 262 260 259 258 258 259 260 259 258 256 254 253 253 252 253 253 253 252 251 251 252 253 253 253 252 252 251
293 293 293 293 293 293 293 293 293 291 291 290 289 289 288 286 283 281 278 276 274 272 270 268 266 264 262 260 258 257 257 257 258 258 257 256 254 253 252 251 252 253 252 251 251 251 252 252 252 252 251 250
293 294 294 295 295 296 296 296 296 296 295 294 293 293 293 292 290 287 283 280 277 274 272 270 268 266 264 262 260 258 256 256 256 256 257 257 255 253 252 251 251 251 252 251 250 250 250 251 251 252 252 250
295 296 297 298 299 300 300 300 300 300 299 299 298 297 298 298 297 295 291 286 282 277 274 271 269 267 266 264 262 260 258 256 255 254 255 256 256 254 253 252 251 250 250 250 250 249 249 250 250 251 251 250
299 301 302 303 304 304 303 304 303 303 303 303 302 301 301 301 300 300 298 294 289 283 277 273 269 267 265 264 263 261 259 258 256 254 253 253 254 254 253 252 251 250 250 250 249 249 248 248 248 248 249 250
303 304 305 306 306 306 306 306 306 306 306 306 306 305 305 304 304 304 303 300 296 290 284 277 271 267 265 263 262 261 260 259 257 255 253 252 252 252 253 252 251 250 249 249 249 248 247 247 247 246 246 247
304 305 306 306 306 306 306 306 306 307 307 307 308 308 308 307 308 307 307 305 302 297 291 284 277 271 267 263 261 259 259 258 257 256 254 253 251 250 251 252 251 250 249 248 248 247 246 245 245 245 245 245
305 306 306 306 306 306 306 306 306 307 307 308 308 309 309 309 310 311 310 309 306 302 296 290 284 278 272 268 264 260 258 256 256 255 255 253 252 250 249 249 250 250 249 248 247 246 245 244 242 242 244 244
306 306 306 305 305 305 305 306 306 307 307 308 309 309 310 311 312 312 313 312 309 305 299 293 288 283 279 274 270 265 260 257 255 254 253 253 252 251 249 248 248 248 248 248 247 246 244 243 241 241 242 242
307 307 306 305 305 305 306 306 306 307 308 309 309 310 311 312 313 314 314 313 311 307 301 295 290 286 283 280 276 271 266 262 257 254 252 252 251 251 249 248 247 247 247 247 246 245 244 243 243 242 242 241